Location: Mt. Graham
(32.7020°N, 109.8880°W)
Time: 19:00:06
(UTC-07:00)

BlueWalker 3 - Visible Passes

Search period start: 27 February 2024 00:00
Search period end: 08 March 2024 00:00
Orbit: 485 x 500 km, 53.2° (Epoch: 27 February)

Date Brightness Start Highest point End Pass type
(mag) Time Alt. Az. Time Alt. Az. Time Alt. Az.
02 Mar 4.1 20:10:31 10° NNW 20:11:43 17° N 20:11:43 17° N visible
03 Mar 3.4 19:46:39 10° NNW 19:49:06 24° NNE 19:49:06 24° NNE visible
04 Mar 3.1 19:22:44 10° NNW 19:25:52 24° NE 19:26:36 23° ENE visible
04 Mar 5.2 21:00:50 10° WNW 21:01:07 12° WNW 21:01:07 12° WNW visible
05 Mar 3.2 18:58:50 10° NNW 19:01:54 23° NE 19:04:13 14° E visible
05 Mar 4.2 20:36:51 10° WNW 20:38:44 23° W 20:38:44 23° W visible
06 Mar 3.3 20:12:51 10° WNW 20:16:13 32° SW 20:16:30 31° SW visible
07 Mar 3.4 19:48:51 10° WNW 19:52:15 33° SW 19:54:26 18° S visible
